Terminal Aerodrome Forecast
Issued by NWS La Crosse, WI

Home | Current Version | Previous Version | Text Only | Print | Product List | Glossary On
Versions: 1 2 3 4 5 6 7 8 9 10 11 12 13 14 15 16 17 18 19 20 21 22 23 24 25 26 27 28 29 30 31 32 33 34 35
000
FTUS43 KARX 301122
TAFLSE
TAF
KLSE 301122Z 3012/3112 35015G24KT P6SM OVC014
      TEMPO 3012/3014 -SHRA
     FM301500 01014G23KT P6SM SCT018 OVC030
     FM301900 01013KT P6SM BKN035
     FM302200 02009KT P6SM SCT040 BKN150
     FM310200 02005KT P6SM SKC
     FM310900 10003KT P6SM SKC=

USA.gov is the U.S. government's official web portal to all federal, state and local government web resources and services.